Whiskeytown Lake Weather Center

Moon Phase Calendar



Whiskeytown Lake Water Level
Online Cameras

 


      

Current Conditions in Shasta
7/28/2021 5:44:45 AM

64°F
Feels Like 64
Clear
Humidity
72%
Pressure
30"
Wind
8 mph (W)
Dew Point
55°F
UV Index
0/10 (Low)
Visibility
6 mi

Hourly Forecast

Date & Time Wed, Jul 28
5:00 AM
Wed, Jul 28
6:00 AM
Wed, Jul 28
7:00 AM
Wed, Jul 28
8:00 AM
Wed, Jul 28
9:00 AM
Wed, Jul 28
10:00 AM
Wed, Jul 28
11:00 AM
Wed, Jul 28
12:00 PM
Wed, Jul 28
1:00 PM
Wed, Jul 28
2:00 PM
Wed, Jul 28
3:00 PM
Wed, Jul 28
4:00 PM
Wed, Jul 28
5:00 PM
Wed, Jul 28
6:00 PM
Wed, Jul 28
7:00 PM
Wed, Jul 28
8:00 PM
Wed, Jul 28
9:00 PM
Wed, Jul 28
10:00 PM
Wed, Jul 28
11:00 PM
Thu, Jul 29
12:00 AM
Thu, Jul 29
1:00 AM
Thu, Jul 29
2:00 AM
Thu, Jul 29
3:00 AM
Thu, Jul 29
4:00 AM
Thu, Jul 29
5:00 AM
Thu, Jul 29
6:00 AM
Thu, Jul 29
7:00 AM
Thu, Jul 29
8:00 AM
Thu, Jul 29
9:00 AM
Thu, Jul 29
10:00 AM
Thu, Jul 29
11:00 AM
Thu, Jul 29
12:00 PM
Thu, Jul 29
1:00 PM
Thu, Jul 29
2:00 PM
Thu, Jul 29
3:00 PM
Thu, Jul 29
4:00 PM
Thu, Jul 29
5:00 PM
Thu, Jul 29
6:00 PM
Thu, Jul 29
7:00 PM
Thu, Jul 29
8:00 PM
Thu, Jul 29
9:00 PM
Thu, Jul 29
10:00 PM
Thu, Jul 29
11:00 PM
Fri, Jul 30
12:00 AM
Fri, Jul 30
1:00 AM
Fri, Jul 30
2:00 AM
Fri, Jul 30
3:00 AM
Fri, Jul 30
4:00 AM
Condition
Clear

Clear

Clear

Clear

Clear

Clear

Clear

Clear

Clear

Clear

Clear

Clear

Clouds

Clouds

Clouds

Clouds

Clouds

Clouds

Clouds

Clouds

Clouds

Clouds

Clouds

Clouds

Clouds

Clouds

Clouds

Clouds

Clouds

Clouds

Clouds

Clouds

Clouds

Clouds

Clouds

Clouds

Clouds

Clouds

Clouds

Clouds

Clouds

Clouds

Clouds

Clouds

Clouds

Clouds

Clouds

Clouds
Temperature 65°F64°F65°F70°F77°F86°F96°F99°F101°F102°F103°F104°F104°F102°F100°F91°F84°F81°F78°F76°F74°F73°F72°F71°F70°F70°F72°F82°F90°F97°F102°F104°F106°F107°F107°F107°F107°F105°F102°F95°F86°F82°F79°F77°F76°F75°F75°F74°F
Feels Like 64°F64°F65°F69°F76°F84°F93°F95°F96°F98°F98°F99°F99°F97°F95°F87°F81°F79°F77°F74°F72°F71°F71°F70°F69°F68°F71°F80°F86°F93°F98°F100°F102°F102°F102°F102°F102°F101°F98°F91°F83°F81°F79°F76°F75°F74°F74°F72°F
Cloudiness 2%2%2%2%1%1%1%0%0%0%5%9%12%83%65%45%34%28%24%21%23%35%43%36%32%33%49%47%50%56%60%70%72%77%81%81%76%45%54%44%35%33%29%79%84%89%92%81%
Visibility 6 mi6 mi6 mi6 mi6 mi6 mi6 mi6 mi6 mi6 mi6 mi6 mi6 mi6 mi6 mi6 mi6 mi6 mi6 mi6 mi6 mi6 mi6 mi6 mi6 mi6 mi6 mi6 mi6 mi6 mi6 mi6 mi6 mi6 mi6 mi6 mi6 mi6 mi6 mi6 mi6 mi6 mi6 mi6 mi6 mi6 mi6 mi6 mi
Precipitation 0%0%0%0%0%0%0%0%0%0%0%0%0%0%0%0%0%0%0%0%0%0%0%0%0%0%0%0%0%0%0%0%0%0%0%0%1%0%0%0%0%0%0%0%0%0%0%0%
Humidity 70%72%69%60%48%34%19%15%14%13%12%11%11%12%13%19%24%26%30%34%38%40%40%41%42%42%40%30%22%17%15%13%12%11%11%11%11%12%14%20%27%32%35%37%38%39%40%41%
Dew Point 55°F55°F55°F55°F56°F54°F46°F43°F41°F40°F40°F39°F38°F38°F40°F42°F41°F41°F42°F43°F44°F45°F45°F44°F44°F44°F45°F46°F45°F44°F44°F42°F41°F41°F40°F41°F41°F41°F43°F45°F46°F47°F47°F47°F47°F47°F47°F47°F
Pressure 30"30"30"30"30.03"30.03"30"29.97"29.97"29.94"29.91"29.88"29.85"29.85"29.85"29.88"29.88"29.91"29.94"29.94"29.94"29.94"29.94"29.97"29.97"29.97"29.97"29.94"29.94"29.91"29.88"29.88"29.83"29.8"29.77"29.77"29.74"29.74"29.77"29.8"29.83"29.85"29.85"29.88"29.88"29.88"29.88"29.88"
Wind Speed 5.4 mph5.3 mph4.6 mph2.8 mph1.9 mph2.2 mph2.6 mph3.9 mph5.1 mph5.8 mph6.9 mph6.4 mph5.7 mph4.8 mph5.9 mph5.9 mph6.4 mph7.1 mph6.8 mph6.4 mph6.1 mph5.6 mph5.5 mph5 mph4.9 mph4.7 mph4.8 mph3.3 mph2.1 mph1.5 mph2.8 mph4 mph4.6 mph5.5 mph6.5 mph6.5 mph5.6 mph5 mph9.8 mph9 mph7.8 mph7.7 mph6.6 mph6.3 mph6.1 mph5.5 mph5.1 mph4.8 mph
Wind
Direction
314°
NW
315°
NW
315°
NW
331°
NNW
27°
NNE
79°
E
119°
ESE
130°
SE
132°
SE
136°
SE
141°
SE
152°
SSE
165°
SSE
194°
SSW
237°
WSW
265°
W
284°
WNW
294°
WNW
303°
WNW
308°
NW
310°
NW
305°
NW
298°
WNW
305°
NW
310°
NW
314°
NW
312°
NW
323°
NW
354°
N
77°
ENE
123°
ESE
137°
SE
147°
SSE
155°
SSE
160°
SSE
176°
S
198°
SSW
227°
SW
274°
W
290°
WNW
290°
WNW
301°
WNW
312°
NW
311°
NW
307°
NW
307°
NW
308°
NW
308°
NW

Daily Forecast

Date High Low Precip. Humidity
Today
Jul 28

Clear
104 °F
64 °F
0%
14%
Thursday
Jul 29

Clouds
107 °F
70 °F
1%
12%
Friday
Jul 30

Clouds
108 °F
73 °F
0%
12%
Saturday
Jul 31

Clouds
97 °F
75 °F
0%
17%
Sunday
Aug 1

Clear
104 °F
71 °F
0%
14%
Monday
Aug 2

Clear
105 °F
70 °F
0%
11%
Tuesday
Aug 3

Clear
104 °F
69 °F
0%
8%
Wednesday
Aug 4

Clear
101 °F
64 °F
0%
9%
Thursday
Aug 5

Clear
103 °F
62 °F
0%
10%
Friday
Aug 6

Clear
99 °F
63 °F
0%
14%
Saturday
Aug 7

Clear
100 °F
64 °F
0%
20%
Sunday
Aug 8

Clear
99 °F
63 °F
0%
15%
Monday
Aug 9

Clear
97 °F
64 °F
0%
25%
Tuesday
Aug 10

Clear
94 °F
63 °F
0%
26%
Wednesday
Aug 11

Clear
94 °F
60 °F
0%
16%
Thursday
Aug 12

Clear
97 °F
61 °F
0%
13%

Temperature 8-14 Day Outlook



Precipitation 8-14 Day Outlook




Quick Links
Whiskeytown Lake News
Whiskeytown Lake Photos
Whiskeytown Lake Videos




About Us
Contact Us
Site Map
Search Site
Advertise With Us
   
Whiskeytown.LakesOnline.com
THE WHISKEYTOWN LAKE WEBSITE

Copyright 2021, Lakes Online
Privacy    |    Legal